Location: *
(37.5724°S, 58.0067°E)
Time: 01:21:48
(UTC+00:00)

Cosmos 1733 - Pass Details

Date: 21 June 2021
Orbit: 503 x 521 km, 82.5° (Epoch: 02 August)

Event Time Altitude Azimuth Distance (km) Brightness Sun altitude
Rises 02:46:49 0° 174° (S) 2,642 6.6 -7.2°
Reaches altitude 10° 02:49:15 10° 160° (SSE) 1,748 5.9 -6.8°
Maximum altitude 02:52:26 25° 103° (ESE) 1,079 5.5 -6.2°
Drops below altitude 10° 02:55:35 10° 47° (NE) 1,729 7.3 -5.6°
Sets 02:57:59 0° 33° (NNE) 2,607 7.9 -5.2°
